Погода в Абовяне

Армения     40°16′46″N   44°37′47″E
темп.,
°C
ветер,
м/с
пор.,
м/с
влажн.,
%
обл.,
%
осадки,
мм/ч
давл.,
гПа
погр.,
м
4 июля, пн
пн401:00+10всв55620 0.0 101470
04:00+9всв44650 0.0 101550
07:00+11всв32641 0.0 101590
10:00+15зсз22513 0.0 10141270
13:00+18сз33429 0.0 10131884
16:00+19ссв43424 0.0 10121843
19:00+16ссв44541 0.0 1013547
22:00+11всв66702 0.0 101680
5 июля, вт
вт501:00+10всв54682 0.0 101654
04:00+10всв44744 0.0 101654
07:00+12всв33695 0.0 1016132
10:00+16зсз225215 0.0 10141276
13:00+19сз32427 0.0 10131764
16:00+21с43385 0.0 10111954
19:00+18св45500 0.0 1011543
22:00+12всв66742 0.0 101590
6 июля, ср
ср601:00+12всв55700 0.0 101561
04:00+11всв54731 0.0 101556
07:00+12всв34692 0.0 1015120
10:00+18ссз22460 0.0 10131295
13:00+21зсз334012 0.0 10121900
16:00+22ссв343818 0.1 10101921
19:00+19всв44493 0.0 1011502
22:00+13всв66714 0.0 101594
7 июля, чт
чт701:00+12всв66653 0.0 101476
04:00+12всв55625 0.0 101461
07:00+14всв446033 0.0 101499
10:00+19сз22454 0.0 1012992
13:00+22зсз334012 0.2 10101618
16:00+23сз343817 1.1 10092085
19:00+20ссв335541 0.8 1010465
22:00+14всв667164 1.0 101386
8 июля, пт
пт801:00+15всв446466 0.1 101175
04:00+13всв44704 0.2 101250
07:00+15всв22661 0.0 101273
10:00+19з21531 0.3 1010890
13:00+23з334314 1.9 10091675
16:00+24ссв344084 3.7 10072390
19:00+18ссз236465 1.3 1011173
22:00+15всв447087 2.4 101350